Regional Weather Roundup
Issued by NWS Jackson, KY

Home | Current Version | Previous Version | Text Only | Print | Product List | Glossary Off
Versions: 1 2 3 4 5 6 7 8 9 10 11 12 13 14 15 16 17 18 19 20 21 22 23 24 25 26 27 28 29 30 31 32 33 34 35 36 37 38 39 40 41 42 43 44 45 46 47 48 49 50

000
ASUS43 KJKL 271405
RWRJKL

EAST KENTUCKY HOURLY WEATHER ROUNDUP
NATIONAL WEATHER SERVICE JACKSON KY
900 AM EST THU NOV 27 2014

NOTE: "FAIR" INDICATES FEW OR NO CLOUDS BELOW 12,000 FEET WITH
NO SIGNIFICANT WEATHER AND/OR OBSTRUCTIONS TO VISIBILITY.

* THESE REPORTS ARE NOT UNDER NWS QUALITY CONTROL AND MAY NOT
  REPORT WEATHER SUCH AS PRECIPITATION AND FOG.

KYZ079-080-083-085-087-088-110-112-115-119-120-271500
...EASTERN KENTUCKY...

CITY           SKY/WX    TMP DP  RH WIND       PRES   REMARKS
JACKSON        CLOUDY    32  29  88 VRB6      30.17R FOG     WCI  26
LONDON         CLOUDY    34  29  82 NW10      30.21R WCI  26
SOMERSET*      CLOUDY    32  32 100 NW7       30.25R WCI  26
MONTICELLO*    CLOUDY    35  32  89 NW12      30.27R WCI  27
HARLAN APT*    CLOUDY    34  32  93 N5        30.16R WCI  30
BLACK MTN*       N/A     23  23 100 VRB10       N/A  WCI  12
PIKEVILLE APT* LGT SNOW  30  30 100 NW7       30.14R WCI  23
BIG SANDY*     CLOUDY    32  31  96 NW6       30.15R FOG     WCI  26
MOREHEAD APT*  LGT SNOW  30  27  86 NW10      30.23R WCI  21
$$

KYZ035-036-041-042-044-050-067-078-099-271500
...CENTRAL KENTUCKY...

CITY           SKY/WX    TMP DP  RH WIND       PRES   REMARKS
MT STERLING*   CLOUDY    30  27  86 N7        30.23R WCI  23
FLEMING/MASON* CLOUDY    29  25  84 NW12      30.22R WCI  19
DANVILLE*      CLOUDY    30  28  93 NW5       30.25R WCI  25
RICHMOND*      CLOUDY    30  28  93 NW7       30.22R WCI  23
LEXINGTON      CLOUDY    29  25  85 NW10      30.24R WCI  20
FRANKFORT      CLOUDY    30  23  75 NW6       30.25R WCI  24
$$

KYZ091>093-OHZ055-061-077-WVZ005-015-034-035-042-271500
...SOUTHERN OHIO/WEST VIRGINIA...

CITY           SKY/WX    TMP DP  RH WIND       PRES   REMARKS
COVINGTON      CLOUDY    30  20  66 NW10G20   30.23R WCI  21
COLUMBUS       CLOUDY    31  26  82 NW8       30.15R HAZE    WCI  23
DAYTON         LGT SNOW  30  25  81 NW12      30.21R WCI  20
WILMINGTON     CLOUDY    29  24  82 NW13G21   30.19R HAZE    WCI  19
HUNTINGTON     PTSUNNY   32  25  75 W7        30.16R WCI  26
CHARLESTON     MOSUNNY   34  30  85 W8        30.12R WCI  27
PINEVILLE*     LGT SNOW  37  36  97 MISG      30.12R
BECKLEY        LGT SNOW  32  29  88 N7        30.02R FOG     WCI  26
BLUEFIELD      LGT SNOW  33  28  81 NW3       30.01R
$$

VAZ002-007-008-TNZ017-027-036-066-071-271500
...SOUTHWEST VIRGINIA/EAST TENNESSEE...

CITY           SKY/WX    TMP DP  RH WIND       PRES   REMARKS
WISE*          LGT SNOW  32  32 100 NW9       30.09R WCI  24
JONESVILLE*    LGT RAIN  36  32  87 NW8       30.17R WCI  29
ABINGDON*      LGT SNOW  35  35 100 CALM      30.06R
BRISTOL        LGT RAIN  35  34  96 W6        30.10R WCI  30
KNOXVILLE      PTSUNNY   38  31  76 W12       30.20R WCI  30
OAK RIDGE      CLOUDY    39  32  76 CALM      30.22R
CROSSVILLE     CLOUDY    33  30  88 NW13G21   30.21R FOG     WCI  24
NASHVILLE      CLOUDY    37  31  78 N12G22    30.34R WCI  29
$$

...KEY TO REMARKS...
VSB - VISIBILITY IN MILES
WCI - WIND CHILL INDEX
HX  - HEAT INDEX

$$



USA.gov is the U.S. government's official web portal to all federal, state and local government web resources and services.